User: anonymous   Login
Location: Wildcat Hills Observatory
(41.6350°N, 103.6812°W)
Time: 03:29:16
(UTC-06:00)
Language:

Cosmos 1634 Rocket - Orbit

View from above orbital plane
View from above orbital plane
View from above satellite
View from above satellite

Ground track
Ground track

The orbit data is extracted from the following two-line orbital elements,

1 15598U 85022B   15238.96827773 -.00000017 +00000-0 -32830-4 0  9993
2 15598 082.9344 237.8171 0022857 152.4502 265.9369 13.76527637529397
Epoch (UTC): 26 August 2015 23:14:19
Eccentricity: 0.0022857
inclination: 82.9344°
perigee height: 959 km
apogee height: 993 km
right ascension of ascending node: 237.8171°
argument of perigee: 152.4502°
revolutions per day: 13.76527637
mean anomaly at epoch: 265.9369°
orbit number at epoch: 52939

The dashed part of the orbit path shows where the satellite is in the earth's shadow,  

DLR